FW8892 Weather Reports


Display with metric or nautical units.
time (UTC)temp
F
wind
direction
speed
MPH
gust
MPH
rain 1hr
in
rain 24hr
in
rain mn
in
humidity
%
barometer
mb
20260903165529 98 250 1.0 6.0 0.00 0.00 0.00 50 1017.4
20260903165030 99 213 2.0 7.0 0.00 0.00 0.00 51 1017.4
20260903164557 98 202 2.0 7.0 0.00 0.00 0.00 49 1017.5
20260903164029 98 180 2.0 7.0 0.00 0.00 0.00 50 1017.6
20260903163531 99 123 1.0 6.0 0.00 0.00 0.00 48 1017.7
20260903163049 100 180 2.0 6.0 0.00 0.00 0.00 51 1017.7
20260903162529 99 0 1.0 3.0 0.00 0.00 0.00 50 1017.6
20260903162029 98 215 0.0 4.0 0.00 0.00 0.00 55 1017.7
20260903161623 97 252 1.0 4.0 0.00 0.00 0.00 54 1017.8
20260903161025 97 265 2.0 4.0 0.00 0.00 0.00 55 1017.9
20260903160529 96 68 1.0 4.0 0.00 0.00 0.00 54 1017.8
20260903160058 97 226 2.0 5.0 0.00 0.00 0.00 53 1017.9
20260903155527 97 67 1.0 5.0 0.00 0.00 0.00 53 1018.0
20260903155025 98 316 1.0 5.0 0.00 0.00 0.00 54 1018.0
20260903154556 98 259 1.0 5.0 0.00 0.00 0.00 57 1018.0
20260903154028 98 0 1.0 6.0 0.00 0.00 0.00 53 1018.0
20260903153529 98 175 3.0 6.0 0.00 0.00 0.00 54 1018.1
20260903153059 97 127 1.0 6.0 0.00 0.00 0.00 54 1018.0
20260903152531 97 217 2.0 8.0 0.00 0.00 0.00 54 1018.0
20260903152029 97 203 3.0 8.0 0.00 0.00 0.00 55 1018.0
20260903151559 96 0 1.0 3.0 0.00 0.00 0.00 54 1017.9
20260903151032 96 0 1.0 4.0 0.00 0.00 0.00 59 1017.9
20260903150529 96 0 1.0 4.0 0.00 0.00 0.00 57 1017.9
20260903150058 96 0 2.0 4.0 0.00 0.00 0.00 56 1018.1
20260903145528 95 144 1.0 4.0 0.00 0.00 0.00 58 1018.1
20260903145028 95 190 2.0 3.0 0.00 0.00 0.00 58 1018.0
20260903144548 94 217 1.0 3.0 0.00 0.00 0.00 59 1018.0
20260903144027 94 44 1.0 3.0 0.00 0.00 0.00 62 1018.0
20260903143529 94 149 1.0 2.0 0.00 0.00 0.00 61 1018.0
20260903143051 93 171 1.0 2.0 0.00 0.00 0.00 63 1017.9
20260903142529 92 0 1.0 3.0 0.00 0.00 0.00 63 1017.9
20260903142028 92 78 0.0 3.0 0.00 0.00 0.00 64 1018.0
20260903141558 92 103 1.0 3.0 0.00 0.00 0.00 66 1017.9
20260903141028 91 208 0.0 3.0 0.00 0.00 0.00 67 1018.0
20260903140528 91 202 0.0 2.0 0.00 0.00 0.00 69 1018.1
20260903135528 90 171 0.0 2.0 0.00 0.00 0.00 71 1018.1
20260903135027 89 209 1.0 2.0 0.00 0.00 0.00 74 1018.1
20260903134553 88 188 1.0 4.0 0.00 0.00 0.00 74 1018.2
20260903134028 87 208 1.0 4.0 0.00 0.00 0.00 75 1018.3
20260903133526 87 125 1.0 4.0 0.00 0.00 0.00 76 1018.3
20260903133059 86 110 1.0 4.0 0.00 0.00 0.00 76 1018.3
20260903132528 86 133 1.0 4.0 0.00 0.00 0.00 76 1018.3
20260903132028 85 172 0.0 4.0 0.00 0.00 0.00 77 1018.3
20260903131607 84 165 1.0 5.0 0.00 0.00 0.00 78 1018.3
20260903131120 84 143 1.0 5.0 0.00 0.00 0.00 78 1018.5
20260903130528 83 0 0.0 2.0 0.00 0.00 0.00 79 1018.4
20260903130100 82 0 0.0 0.0 0.00 0.00 0.00 83 1018.3
20260903125530 81 0 0.0 0.0 0.00 0.00 0.00 85 1018.4
20260903125029 79 0 0.0 0.0 0.00 0.00 0.00 87 1018.3
20260903124549 78 0 0.0 0.0 0.00 0.00 0.00 89 1018.3
20260903124028 77 0 0.0 0.0 0.00 0.00 0.00 90 1018.3
20260903123527 76 0 0.0 0.0 0.00 0.00 0.00 93 1018.2
20260903123058 75 0 0.0 0.0 0.00 0.00 0.00 94 1018.2
20260903122528 74 0 0.0 0.0 0.00 0.00 0.00 97 1018.2
20260903122030 74 0 0.0 0.0 0.00 0.00 0.00 98 1018.2
20260903121557 73 0 0.0 0.0 0.00 0.00 0.00 98 1018.2
20260903121028 73 0 0.0 0.0 0.00 0.00 0.00 99 1018.2
20260903120528 72 0 0.0 0.0 0.00 0.00 0.00 98 1018.1
20260903120055 72 0 0.0 0.0 0.00 0.00 0.00 98 1018.1
20260903115533 71 0 0.0 0.0 0.00 0.00 0.00 97 1018.2
20260903115030 71 0 0.0 0.0 0.00 0.00 0.00 97 1018.1
20260903114608 71 0 0.0 0.0 0.00 0.00 0.00 97 1017.9
20260903114028 71 0 0.0 0.0 0.00 0.00 0.00 97 1017.9
20260903113529 71 0 0.0 0.0 0.00 0.00 0.00 97 1017.8
20260903113107 71 0 0.0 0.0 0.00 0.00 0.00 97 1017.8
20260903112533 71 0 0.0 0.0 0.00 0.00 0.00 97 1017.7
20260903112029 71 0 0.0 0.0 0.00 0.00 0.00 97 1017.6
20260903111557 71 0 0.0 0.0 0.00 0.00 0.00 96 1017.7
20260903111029 71 0 0.0 0.0 0.00 0.00 0.00 96 1017.5
20260903110530 71 0 0.0 0.0 0.00 0.00 0.00 96 1017.5
20260903110054 71 0 0.0 0.0 0.00 0.00 0.00 96 1017.4
20260903105530 71 0 0.0 0.0 0.00 0.00 0.00 97 1017.3
20260903105029 71 0 0.0 0.0 0.00 0.00 0.00 97 1017.3
20260903104605 71 0 0.0 0.0 0.00 0.00 0.00 97 1017.2
20260903104029 71 0 0.0 0.0 0.00 0.00 0.00 97 1017.3
20260903103529 71 0 0.0 0.0 0.00 0.00 0.00 96 1017.2
20260903103057 71 0 0.0 0.0 0.00 0.00 0.00 96 1017.2
20260903102531 71 0 0.0 0.0 0.00 0.00 0.00 96 1017.2
20260903102028 71 0 0.0 0.0 0.00 0.00 0.00 96 1017.1
20260903101556 72 0 0.0 0.0 0.00 0.00 0.00 96 1017.0
20260903101029 72 0 0.0 0.0 0.00 0.00 0.00 96 1017.0
20260903100527 72 0 0.0 0.0 0.00 0.00 0.00 96 1017.0
20260903100051 72 0 0.0 0.0 0.00 0.00 0.00 96 1017.0
20260903095527 72 0 0.0 0.0 0.00 0.00 0.00 97 1017.0
20260903095026 72 0 0.0 0.0 0.00 0.00 0.00 97 1016.9
20260903094549 72 0 0.0 0.0 0.00 0.00 0.00 96 1017.0
20260903094027 72 0 0.0 0.0 0.00 0.00 0.00 96 1016.9
20260903093529 72 0 0.0 0.0 0.00 0.00 0.00 96 1016.9
20260903093102 72 0 0.0 0.0 0.00 0.00 0.00 96 1016.8
20260903092528 72 0 0.0 0.0 0.00 0.00 0.00 96 1016.9
20260903092027 72 0 0.0 0.0 0.00 0.00 0.00 96 1016.9
20260903091556 72 0 0.0 0.0 0.00 0.00 0.00 96 1016.8
20260903091028 72 0 0.0 0.0 0.00 0.00 0.00 95 1017.0
20260903090533 72 0 0.0 0.0 0.00 0.00 0.00 95 1016.8
20260903090050 72 0 0.0 0.0 0.00 0.00 0.00 95 1017.0
20260903085528 72 0 0.0 0.0 0.00 0.00 0.00 96 1016.9
20260903085028 72 0 0.0 0.0 0.00 0.00 0.00 95 1016.9
20260903084546 73 0 0.0 0.0 0.00 0.00 0.00 95 1016.9
20260903084028 73 0 0.0 0.0 0.00 0.00 0.00 96 1017.0
20260903083529 73 0 0.0 0.0 0.00 0.00 0.00 96 1016.9
20260903083053 73 0 0.0 0.0 0.00 0.00 0.00 96 1016.9
20260903082528 73 0 0.0 0.0 0.00 0.00 0.00 96 1016.8
20260903082029 73 0 0.0 0.0 0.00 0.00 0.00 95 1016.9
20260903081557 73 0 0.0 0.0 0.00 0.00 0.00 95 1016.9
20260903081029 73 0 0.0 0.0 0.00 0.00 0.00 95 1016.8
20260903080529 73 0 0.0 0.0 0.00 0.00 0.00 95 1016.9
20260903080046 73 0 0.0 0.0 0.00 0.00 0.00 95 1016.8
20260903075529 73 0 0.0 0.0 0.00 0.00 0.00 95 1016.7
20260903075031 73 0 0.0 0.0 0.00 0.00 0.00 95 1016.8
20260903074600 73 0 0.0 0.0 0.00 0.00 0.00 95 1016.8
20260903074031 73 0 0.0 0.0 0.00 0.00 0.00 95 1016.7
20260903073528 73 0 0.0 0.0 0.00 0.00 0.00 95 1016.7
20260903073059 73 0 0.0 0.0 0.00 0.00 0.00 95 1016.7
20260903072528 73 0 0.0 0.0 0.00 0.00 0.00 95 1016.7
20260903072027 73 0 0.0 0.0 0.00 0.00 0.00 95 1016.7
20260903071548 73 0 0.0 0.0 0.00 0.00 0.00 95 1016.7
20260903071028 73 0 0.0 0.0 0.00 0.00 0.00 94 1016.7
20260903070528 74 0 0.0 0.0 0.00 0.00 0.00 95 1016.7
20260903070134 74 0 0.0 0.0 0.00 0.00 0.00 94 1016.7
20260903065529 74 0 0.0 0.0 0.00 0.00 0.00 94 1016.7
20260903065027 74 0 0.0 0.0 0.00 0.00 0.00 94 1016.8
20260903064553 74 0 0.0 0.0 0.00 0.00 0.00 93 1016.8
20260903064030 74 0 0.0 0.0 0.00 0.00 0.00 93 1016.8
20260903063529 74 0 0.0 0.0 0.00 0.00 0.00 93 1016.9
20260903063057 74 0 0.0 0.0 0.00 0.00 0.00 94 1017.0
20260903062530 74 0 0.0 0.0 0.00 0.00 0.00 94 1017.0
20260903062031 74 0 0.0 0.0 0.00 0.00 0.00 93 1017.0
20260903061554 74 0 0.0 0.0 0.00 0.00 0.00 93 1016.9
20260903061031 74 0 0.0 0.0 0.00 0.00 0.00 93 1017.0
20260903060529 74 0 0.0 0.0 0.00 0.00 0.00 93 1016.8
20260903060054 74 0 0.0 0.0 0.00 0.00 0.00 93 1016.9
20260903055531 74 0 0.0 0.0 0.00 0.00 0.00 93 1016.9
20260903055030 75 0 0.0 0.0 0.00 0.00 0.00 93 1017.0
20260903054558 75 0 0.0 0.0 0.00 0.00 0.00 93 1017.0
20260903054028 75 0 0.0 0.0 0.00 0.00 0.00 93 1017.0
20260903053532 75 0 0.0 0.0 0.00 0.00 0.00 93 1017.0
20260903053101 75 0 0.0 0.0 0.00 0.00 0.00 92 1017.0
20260903052531 75 0 0.0 0.0 0.00 0.00 0.00 92 1017.0
20260903052035 75 0 0.0 0.0 0.00 0.00 0.00 92 1017.0
20260903051557 75 0 0.0 0.0 0.00 0.00 0.00 92 1017.0
20260903051034 75 0 0.0 0.0 0.00 0.00 0.00 92 1016.9
20260903050531 75 0 0.0 0.0 0.00 0.00 0.00 92 1016.9
20260903045532 75 0 0.0 0.0 0.00 0.00 0.00 92 1016.8
20260903045031 75 0 0.0 0.0 0.00 0.00 0.00 91 1016.8
20260903044601 75 0 0.0 0.0 0.00 0.00 0.00 91 1016.7
20260903044030 76 0 0.0 0.0 0.00 0.00 0.00 91 1016.8
20260903043530 76 0 0.0 0.0 0.00 0.00 0.00 91 1016.8
20260903043058 76 0 0.0 0.0 0.00 0.00 0.00 91 1016.7
20260903042530 76 0 0.0 0.0 0.00 0.00 0.00 91 1016.8
20260903042030 76 0 0.0 0.0 0.00 0.00 0.00 91 1016.8
20260903041553 76 0 0.0 0.0 0.00 0.00 0.00 90 1016.8
20260903041028 76 0 0.0 0.0 0.00 0.00 0.00 90 1017.0
20260903040532 76 0 0.0 0.0 0.00 0.00 0.00 90 1016.9
20260903035529 76 0 0.0 0.0 0.00 0.00 0.00 89 1016.8
20260903035028 76 0 0.0 0.0 0.00 0.00 0.00 89 1017.0
20260903034559 77 0 0.0 0.0 0.00 0.00 0.00 89 1016.9
20260903034027 77 0 0.0 0.0 0.00 0.00 0.00 89 1016.8
20260903033529 77 0 0.0 0.0 0.00 0.00 0.00 88 1016.8
20260903033055 77 0 0.0 0.0 0.00 0.00 0.00 88 1016.8
20260903032532 77 0 0.0 0.0 0.00 0.00 0.00 88 1016.7
20260903032030 77 0 0.0 0.0 0.00 0.00 0.00 87 1016.8
20260903031549 77 0 0.0 0.0 0.00 0.00 0.00 87 1016.8
20260903031028 78 0 0.0 0.0 0.00 0.00 0.00 87 1017.0
20260903030529 78 0 0.0 0.0 0.00 0.00 0.00 87 1017.0
20260903030050 78 0 0.0 0.0 0.00 0.00 0.00 87 1017.0
20260903025533 78 0 0.0 0.0 0.00 0.00 0.00 87 1016.9
20260903025028 78 0 0.0 0.0 0.00 0.00 0.00 86 1016.9
20260903024558 78 0 0.0 0.0 0.00 0.00 0.00 86 1016.8
20260903024028 78 0 0.0 0.0 0.00 0.00 0.00 86 1016.9
20260903023528 78 0 0.0 0.0 0.00 0.00 0.00 85 1017.0
20260903023056 79 0 0.0 0.0 0.00 0.00 0.00 84 1017.0
20260903022527 79 0 0.0 0.0 0.00 0.00 0.00 85 1016.9
20260903022029 79 0 0.0 0.0 0.00 0.00 0.00 83 1016.9
20260903021550 79 0 0.0 0.0 0.00 0.00 0.00 84 1016.8
20260903021033 79 0 0.0 0.0 0.00 0.00 0.00 82 1016.9
20260903020532 79 0 0.0 0.0 0.00 0.00 0.00 82 1016.9
20260903020100 80 0 0.0 0.0 0.00 0.00 0.00 82 1016.8
20260903015529 80 0 0.0 0.0 0.00 0.00 0.00 81 1016.8
20260903015028 80 0 0.0 0.0 0.00 0.00 0.00 80 1016.8
20260903014610 80 0 0.0 0.0 0.00 0.00 0.00 80 1016.8
20260903014028 81 0 0.0 0.0 0.00 0.00 0.00 80 1016.7
20260903013527 81 0 0.0 0.0 0.00 0.00 0.00 80 1016.7
20260903013055 81 0 0.0 0.0 0.00 0.00 0.00 79 1016.7
20260903012529 82 0 0.0 0.0 0.00 0.00 0.00 79 1016.6
20260903012029 82 0 0.0 0.0 0.00 0.00 0.00 79 1016.5
20260903011549 82 0 0.0 0.0 0.00 0.00 0.00 78 1016.5
20260903011028 82 0 0.0 0.0 0.00 0.00 0.00 78 1016.4
20260903010528 83 0 0.0 0.0 0.00 0.00 0.00 77 1016.5
20260903010058 83 0 0.0 0.0 0.00 0.00 0.00 76 1016.4
20260903005529 84 0 0.0 0.0 0.00 0.00 0.00 75 1016.4
20260903005029 84 0 0.0 0.0 0.00 0.00 0.00 74 1016.4
20260903004557 85 0 0.0 0.0 0.00 0.00 0.00 73 1016.5
20260903004027 85 0 0.0 0.0 0.00 0.00 0.00 72 1016.6
20260903003528 86 0 0.0 0.0 0.00 0.00 0.00 71 1016.5
20260903003048 86 0 0.0 0.0 0.00 0.00 0.00 71 1016.5
20260903002531 87 0 0.0 0.0 0.00 0.00 0.00 70 1016.6
20260903002029 87 0 0.0 0.0 0.00 0.00 0.00 69 1016.6
20260903001549 88 0 0.0 0.0 0.00 0.00 0.00 68 1016.5
20260903001029 88 0 0.0 0.0 0.00 0.00 0.00 67 1016.6
20260903000530 89 0 0.0 0.0 0.00 0.00 0.00 66 1016.5
20260903000058 89 0 0.0 1.0 0.00 0.00 0.00 65 1016.6
20260902235530 90 0 0.0 1.0 0.00 0.00 0.00 63 1016.7
20260902235029 90 0 0.0 1.0 0.00 0.00 0.00 62 1016.7
20260902234600 90 0 0.0 1.0 0.00 0.00 0.00 60 1016.7
20260902234027 91 0 0.0 2.0 0.00 0.00 0.00 59 1016.7
20260902233530 91 0 0.0 2.0 0.00 0.00 0.00 59 1016.7
20260902233048 91 0 0.0 2.0 0.00 0.00 0.00 59 1016.8
20260902232534 92 0 0.0 2.0 0.00 0.00 0.00 59 1016.6
20260902232027 92 0 0.0 2.0 0.00 0.00 0.00 57 1016.7
20260902231549 92 0 0.0 2.0 0.00 0.00 0.00 57 1016.7
20260902231031 92 0 0.0 2.0 0.00 0.00 0.00 56 1016.7
20260902230530 93 205 0.0 2.0 0.00 0.00 0.00 55 1016.7
20260902225528 93 227 0.0 3.0 0.00 0.00 0.00 53 1016.7
20260902225029 93 277 0.0 3.0 0.00 0.00 0.00 54 1016.7
20260902224548 94 254 0.0 4.0 0.00 0.00 0.00 53 1016.7
20260902224029 94 212 1.0 4.0 0.00 0.00 0.00 53 1016.8
20260902223527 94 232 1.0 4.0 0.00 0.00 0.00 53 1016.7
20260902223051 94 102 0.0 5.0 0.00 0.00 0.00 52 1016.8
20260902222528 94 0 1.0 5.0 0.00 0.00 0.00 52 1016.8
20260902222028 94 226 1.0 4.0 0.00 0.00 0.00 51 1016.8
20260902221552 94 116 1.0 5.0 0.00 0.00 0.00 51 1016.9
20260902221029 95 0 1.0 5.0 0.00 0.00 0.00 51 1016.8
20260902220533 95 134 1.0 6.0 0.00 0.00 0.00 51 1016.9
20260902220056 95 0 1.0 6.0 0.00 0.00 0.00 49 1017.0
20260902215533 95 131 2.0 6.0 0.00 0.00 0.00 51 1016.8
20260902215029 95 153 3.0 6.0 0.00 0.00 0.00 50 1016.8
20260902214555 95 136 2.0 6.0 0.00 0.00 0.00 49 1016.8
20260902214028 96 261 2.0 6.0 0.00 0.00 0.00 50 1016.8
20260902213529 96 132 1.0 5.0 0.00 0.00 0.00 49 1016.9
20260902213056 97 142 1.0 9.0 0.00 0.00 0.00 48 1016.9
20260902212532 97 179 2.0 9.0 0.00 0.00 0.00 48 1017.0
20260902212032 98 160 3.0 9.0 0.00 0.00 0.00 49 1017.0
20260902211604 98 193 2.0 9.0 0.00 0.00 0.00 49 1017.0
20260902211032 98 202 2.0 7.0 0.00 0.00 0.00 48 1017.0
20260902210529 99 191 2.0 6.0 0.00 0.00 0.00 47 1017.1
20260902205528 98 202 2.0 5.0 0.00 0.00 0.00 47 1017.0
20260902205028 98 0 2.0 5.0 0.00 0.00 0.00 47 1017.0
20260902204555 98 184 2.0 7.0 0.00 0.00 0.00 48 1017.0
20260902204032 98 107 1.0 7.0 0.00 0.00 0.00 47 1017.2
20260902203529 98 105 2.0 8.0 0.00 0.00 0.00 48 1017.1
20260902203051 98 196 3.0 9.0 0.00 0.00 0.00 49 1017.2
20260902202528 98 148 3.0 9.0 0.00 0.00 0.00 49 1017.2
20260902202029 97 134 2.0 8.0 0.00 0.00 0.00 48 1017.3
20260902201549 97 168 4.0 8.0 0.00 0.00 0.00 49 1017.5
20260902201029 97 0 2.0 5.0 0.00 0.00 0.00 48 1017.5
20260902200530 97 186 1.0 5.0 0.00 0.00 0.00 50 1017.6
20260902200055 97 213 1.0 5.0 0.00 0.00 0.00 50 1017.7
20260902195529 97 0 1.0 5.0 0.00 0.00 0.00 48 1017.8
20260902195029 97 152 1.0 7.0 0.00 0.00 0.00 49 1017.9
20260902194555 97 199 3.0 8.0 0.00 0.00 0.00 49 1017.9
20260902194031 97 190 2.0 8.0 0.00 0.00 0.00 51 1017.9
20260902193529 97 159 2.0 5.0 0.00 0.00 0.00 51 1018.0
20260902193050 96 230 1.0 5.0 0.00 0.00 0.00 51 1018.1
20260902192529 96 100 2.0 5.0 0.00 0.00 0.00 48 1018.1
20260902192030 97 77 0.0 5.0 0.00 0.00 0.00 48 1018.2
20260902191602 97 0 1.0 8.0 0.00 0.00 0.00 49 1018.2
20260902191030 98 284 0.0 8.0 0.00 0.00 0.00 50 1018.3
20260902190528 98 94 3.0 6.0 0.00 0.00 0.00 48 1018.4
20260902190054 98 203 2.0 5.0 0.00 0.00 0.00 51 1018.4
20260902185529 97 323 2.0 9.0 0.00 0.00 0.00 48 1018.5
20260902185027 97 0 2.0 9.0 0.00 0.00 0.00 46 1018.5
20260902184618 97 277 4.0 9.0 0.00 0.00 0.00 49 1018.5
20260902184030 97 219 2.0 7.0 0.00 0.00 0.00 51 1018.6
20260902183530 98 90 2.0 7.0 0.00 0.00 0.00 48 1018.7
20260902183057 97 249 1.0 5.0 0.00 0.00 0.00 53 1018.6
20260902182528 97 142 2.0 6.0 0.00 0.00 0.00 49 1018.7
20260902182029 97 0 2.0 9.0 0.00 0.00 0.00 48 1018.8
20260902181550 97 132 3.0 12.0 0.00 0.00 0.00 52 1018.8
20260902181029 97 178 4.0 12.0 0.00 0.00 0.00 50 1018.8
20260902180529 97 203 3.0 7.0 0.00 0.00 0.00 52 1018.8
20260902180051 97 231 2.0 7.0 0.00 0.00 0.00 49 1018.9
20260902175532 97 287 1.0 7.0 0.00 0.00 0.00 50 1019.0
20260902175029 97 232 3.0 8.0 0.00 0.00 0.00 50 1019.0
20260902174603 98 128 3.0 8.0 0.00 0.00 0.00 50 1019.0
20260902174029 98 176 4.0 10.0 0.00 0.00 0.00 48 1019.0
20260902173529 97 285 2.0 10.0 0.00 0.00 0.00 51 1019.3
20260902173053 97 164 3.0 7.0 0.00 0.00 0.00 52 1019.2
20260902172530 97 186 2.0 6.0 0.00 0.00 0.00 52 1019.3
20260902172030 97 258 2.0 9.0 0.00 0.00 0.00 52 1019.2
20260902171605 97 280 3.0 9.0 0.00 0.00 0.00 53 1019.4
20260902171029 97 234 1.0 5.0 0.00 0.00 0.00 50 1019.3
20260902170528 97 265 2.0 8.0 0.00 0.00 0.00 50 1019.4